Regional Weather Roundup
Issued by NWS

Home | Current Version | Previous Version | Graphics & Text | Print | Product List | Glossary On
Versions: 1 2 3 4 5 6 7 8 9 10 11 12 13 14 15 16 17 18 19 20 21 22 23 24 25 26 27 28 29 30 31 32 33 34 35 36 37 38 39 40 41 42 43 44 45 46 47 48 49 50
000
ASUS43 KLMK 271910
RWRKY
KENTUCKY REGIONAL WEATHER ROUNDUP
NATIONAL WEATHER SERVICE LOUISVILLE KY
300 PM EDT WED JUL 27 2016

NOTE "FAIR" INDICATES FEW OR NO CLOUDS BELOW 12,000 FEET
WITH NO SIGNIFICANT WEATHER AND/OR OBSTRUCTIONS TO VISIBILITY.

KYZ001>023-026-027-061>063-070>075-272000-
WESTERN AND SOUTH CENTRAL KENTUCKY

CITY           SKY/WX    TMP DP  RH WIND       PRES   REMARKS
PADUCAH        PTSUNNY   91  76  61 N7        29.94F HX 103
HENDERSON      CLOUDY    90  77  66 CALM      29.94F HX 102
OWENSBORO      MOSUNNY   91  76  61 SW5       29.97F HX 102
HOPKINSVILLE   MOSUNNY   90  77  64 VRB3      29.96F HX 103
BOWLING GREEN  CLOUDY    92  75  57 W7        29.97F HX 103
GLASGOW        MOSUNNY   91  73  55 W7        29.98F HX 100
$$

KYZ024-025-028>034-038-045-046-053-272000-
NORTH CENTRAL KENTUCKY

CITY           SKY/WX    TMP DP  RH WIND       PRES   REMARKS
LOUISVILLE/SDF CLOUDY    90  71  53 CALM      29.97F HX  96
LOUISVILLE/LOU CLOUDY    92  70  48 VRB7      29.98F HX  97
FORT KNOX      PTSUNNY   86  74  67 NE2       29.98F HX  93
$$

KYZ035>037-039>044-047>052-055>060-089>105-272000-
NORTHEAST KENTUCKY

CITY           SKY/WX    TMP DP  RH WIND       PRES   REMARKS
LEXINGTON      CLOUDY    86  71  60 W8        30.01S HX  91
COVINGTON      PTSUNNY   87  71  58 W7        30.00F HX  93
FRANKFORT      CLOUDY    86  73  65 VRB3      29.99S HX  93
$$

KYZ054-064>069-076>088-106>120-272000-
SOUTHEAST KENTUCKY

CITY           SKY/WX    TMP DP  RH WIND       PRES   REMARKS
JACKSON        PTSUNNY   86  75  69 VRB3      30.02F HX  95
LONDON         SUNNY     92  69  47 VRB5      30.01F HX  97
SOMERSET       CLOUDY    88  70  55 W5        30.02S HX  92
MIDDLESBORO    MOSUNNY   94  73  50 NW5       30.00F HX 103
MONTICELLO     PTCLDY   N/A N/A N/A W7        30.02F
$$





USA.gov is the U.S. government's official web portal to all federal, state and local government web resources and services.